Weather History for Cape Newenham, AK

Change the Weather History Date:

Sunday, July 28, 2013

  Actual Average Record
Temperature  
Mean Temperature 50 °F -  
Max Temperature 54 °F 53 °F 59 °F (1997)
Min Temperature 47 °F 46 °F 1 °F (2001)
Degree Days  
Heating Degree Days 14    
Moisture  
Dew Point 49 °F    
Average Humidity 97    
Maximum Humidity 100    
Minimum Humidity 86    
Precipitation  
Precipitation 0.00 in - - ()
Sea Level Pressure  
Sea Level Pressure 30.37 in    
Wind  
Wind Speed 3 mph (North)    
Max Wind Speed 7 mph    
Max Gust Speed -    
Visibility 6 miles    
Events Fog , Rain , Thunderstorm    
Averages and records for this station are not official NWS values.
T = Trace of Precipitation, MM = Missing Value Source: NWS Daily Summary

Daily Weather History Graph

Daily Weather History Graph

Search for Another Location

Airport:

Trip Planner

Search our weather history database for the weather conditions in past years. The results will help you decide how hot, cold, wet, or windy it might be!

Date:

Astronomy

Jul. 28, 2013 Rise Set
Actual Time 6:30 AM AKDT 11:17 PM AKDT
Civil Twilight 5:32 AM AKDT 12:14 AM AKDT
Nautical Twilight 3:36 AM AKDT 2:04 AM AKDT
Astronomical Twilight Sun does not rise Sun does not rise
Moon 12:29 AM AKDT (7/28) 3:18 PM AKDT (7/28)
Length of Visible Light 18h 42m
Length of Day
16h 47m
Waning Gibbous, 59% of the Moon is Illuminated
Jul 28
Waning Gibbous
Jul 29
Last Quarter
Aug 6
New
Aug 14
First Quarter
Aug 20
Full

Hourly Weather History & Observations

Time (AKDT) Temp. Dew Point Humidity Pressure Visibility Wind Dir Wind Speed Gust Speed Precip Events Conditions
12:55 AM 47.3 °F 47.1 °F 99% 30.40 in 2.5 mi Variable 3.5 mph - N/A Thunderstorm Overcast
1:55 AM 47.1 °F 47.1 °F 100% 30.40 in 0.5 mi NW 2.3 mph - N/A Fog Fog
2:55 AM 47.1 °F 47.1 °F 100% 30.40 in 0.8 mi South 2.3 mph - N/A Fog Fog
3:55 AM 47.8 °F 47.7 °F 99% 30.39 in 2.5 mi Variable 2.3 mph - N/A   Overcast
4:55 AM 47.5 °F 47.5 °F 100% 30.39 in 2.5 mi Variable 1.2 mph - N/A   Overcast
5:55 AM 47.5 °F 47.3 °F 99% 30.39 in 3.0 mi West 2.3 mph - N/A   Overcast
6:55 AM 47.3 °F 47.3 °F 100% 30.38 in 0.2 mi East 1.2 mph - N/A Fog , Rain Light Rain
7:55 AM 47.7 °F 47.7 °F 100% 30.39 in 0.5 mi NNW 4.6 mph - N/A Fog , Rain Light Rain Showers
8:55 AM 48.0 °F 48.0 °F 100% 30.39 in 10.0 mi NNW 3.5 mph - N/A   Overcast
9:55 AM 48.6 °F 48.6 °F 100% 30.38 in 10.0 mi Variable 2.3 mph - N/A   Overcast
10:55 AM 49.6 °F 50.0 °F 100% 30.38 in 10.0 mi Variable 2.3 mph - N/A   Overcast
11:55 AM 50.4 °F 50.0 °F 99% 30.39 in 10.0 mi NNE 4.6 mph - N/A   Overcast
12:55 PM 51.1 °F 50.7 °F 99% 30.39 in 10.0 mi Variable 3.5 mph - N/A   Overcast
1:55 PM 52.0 °F 50.0 °F 93% 30.38 in 10.0 mi NNE 6.9 mph - N/A   Overcast
2:55 PM 52.7 °F 49.8 °F 90% 30.38 in 10.0 mi Variable 4.6 mph - N/A   Overcast
3:55 PM 52.9 °F 50.4 °F 91% 30.37 in 10.0 mi NNW 5.8 mph - N/A   Overcast
4:55 PM 52.9 °F 50.4 °F 91% 30.36 in 10.0 mi North 4.6 mph - N/A   Overcast
5:55 PM 54.0 °F 49.8 °F 86% 30.35 in 10.0 mi North 6.9 mph - N/A   Overcast
6:55 PM 50.7 °F 50.2 °F 98% 30.35 in 1.0 mi North 5.8 mph - N/A   Light Drizzle
7:55 PM 50.5 °F 49.6 °F 97% 30.34 in 7.0 mi Variable 2.3 mph - N/A   Mostly Cloudy
8:55 PM 51.4 °F 49.8 °F 94% 30.33 in 10.0 mi Variable 1.2 mph - N/A Thunderstorm Mostly Cloudy
9:55 PM 48.9 °F 48.7 °F 99% 30.32 in 0.2 mi NNE 3.5 mph - N/A Fog Fog
10:55 PM 49.3 °F 49.3 °F 100% 30.32 in 0.2 mi NNW 2.3 mph - N/A Fog Patches of Fog
11:55 PM 49.5 °F 48.9 °F 98% 30.32 in 10.0 mi East 2.3 mph - N/A   Scattered Clouds